THY6EN EDDB-LTFM

Flight info

Callsign THY6EN
Flight time N/A
Altitude 39000
Route ARSAP4N ARSAP Y210 OLUMA DCT KULUV T710 VAGON P193 KELEL DCT KEKED DCT BADOR DCT IRLOX DCT RONBU DCT BUVAK DCT RIXEN
Aircraft B77W/H-SDE1E2E3FGHIJ2J3J4J5M1RWXY/LB1D1

Departure

Time 2026-05-01 15:17
Airport Berlin Brandenburg Airport (EDDB)

Arrival

Time N/A
Airport İstanbul Airport (LTFM)
Time Latitude Longitude Altitude Speed Heading
2026-05-01 14:31 52.36646 13.50413 159 ft 0 kts 68°
2026-05-01 14:32 52.36611 13.50435 159 ft 0 kts 68°
2026-05-01 14:34 52.36646 13.50413 159 ft 0 kts 68°
2026-05-01 15:08 52.36639 13.50381 159 ft 4 kts 69°
2026-05-01 15:08 52.36629 13.50340 159 ft 4 kts 69°
2026-05-01 15:09 52.36619 13.50299 159 ft 3 kts 69°
2026-05-01 15:09 52.36612 13.50265 159 ft 4 kts 86°
2026-05-01 15:09 52.36617 13.50225 159 ft 4 kts 127°
2026-05-01 15:09 52.36636 13.50198 159 ft 3 kts 157°
2026-05-01 15:10 52.36641 13.50195 159 ft 0 kts 159°
2026-05-01 15:12 52.36522 13.50270 159 ft 24 kts 159°
2026-05-01 15:12 52.36368 13.50369 159 ft 24 kts 159°
2026-05-01 15:13 52.35914 13.50664 159 ft 19 kts 142°
2026-05-01 15:14 52.35759 13.50961 159 ft 19 kts 78°
2026-05-01 15:14 52.35817 13.51219 159 ft 31 kts 68°
2026-05-01 15:14 52.35968 13.51848 159 ft 30 kts 70°
2026-05-01 15:15 52.35944 13.52217 159 ft 10 kts 155°
2026-05-01 15:15 52.35824 13.52233 159 ft 9 kts 251°
2026-05-01 15:16 52.35808 13.52166 159 ft 1 kts 248°
2026-05-01 15:16 52.35499 13.50868 159 ft 139 kts 249°
2026-05-01 15:17 52.34605 13.47258 1212 ft 176 kts 255°
2026-05-01 15:18 52.32520 13.41603 2621 ft 241 kts 226°
2026-05-01 15:18 52.31313 13.39623 3494 ft 241 kts 226°
2026-05-01 15:19 52.27907 13.33636 6259 ft 247 kts 227°
2026-05-01 15:19 52.25546 13.29368 7815 ft 257 kts 226°
2026-05-01 15:19 52.24119 13.27647 8447 ft 258 kts 195°
2026-05-01 15:20 52.20838 13.28627 9964 ft 246 kts 135°
2026-05-01 15:20 52.19781 13.30776 10714 ft 242 kts 113°
2026-05-01 15:20 52.19294 13.33371 11425 ft 240 kts 97°
2026-05-01 15:21 52.19335 13.36052 12175 ft 238 kts 75°
2026-05-01 15:21 52.19784 13.38657 13037 ft 240 kts 74°
2026-05-01 15:21 52.20252 13.41385 13545 ft 263 kts 74°
2026-05-01 15:21 52.20761 13.44335 14277 ft 274 kts 73°
2026-05-01 15:22 52.21821 13.50469 16020 ft 286 kts 73°
2026-05-01 15:22 52.22361 13.53609 16961 ft 290 kts 73°
2026-05-01 15:22 52.22910 13.56810 17917 ft 295 kts 72°
2026-05-01 15:23 52.23466 13.60062 18823 ft 300 kts 72°
2026-05-01 15:23 52.24031 13.63369 19668 ft 305 kts 72°
2026-05-01 15:23 52.24600 13.66717 20528 ft 308 kts 72°
2026-05-01 15:23 52.25168 13.70067 21387 ft 312 kts 72°
2026-05-01 15:24 52.25748 13.73494 22244 ft 316 kts 72°
2026-05-01 15:24 52.26338 13.76988 23088 ft 321 kts 73°
2026-05-01 15:24 52.26939 13.80546 23758 ft 333 kts 73°
2026-05-01 15:24 52.27575 13.84319 23919 ft 357 kts 73°
2026-05-01 15:25 52.28253 13.88353 24090 ft 379 kts 73°
2026-05-01 15:25 52.28965 13.92611 24281 ft 398 kts 73°
2026-05-01 15:25 52.29705 13.97042 24698 ft 409 kts 73°
2026-05-01 15:25 52.30456 14.01558 25341 ft 414 kts 73°
2026-05-01 15:26 52.31192 14.06120 25984 ft 415 kts 76°
2026-05-01 15:26 52.31420 14.10878 26464 ft 429 kts 92°
2026-05-01 15:26 52.30836 14.15680 26985 ft 435 kts 101°
2026-05-01 15:26 52.30092 14.20502 27515 ft 440 kts 101°
2026-05-01 15:27 52.29608 14.23735 27911 ft 443 kts 100°
2026-05-01 15:27 52.28891 14.28645 28522 ft 446 kts 100°
2026-05-01 15:27 52.28182 14.33606 29094 ft 450 kts 100°
2026-05-01 15:28 52.26754 14.43682 30162 ft 459 kts 100°
2026-05-01 15:28 52.26030 14.48786 30621 ft 463 kts 100°
2026-05-01 15:28 52.25297 14.53929 31027 ft 467 kts 100°
2026-05-01 15:29 52.23814 14.64274 31977 ft 468 kts 100°
2026-05-01 15:29 52.23070 14.69422 32565 ft 465 kts 101°
2026-05-01 15:29 52.20671 14.79164 33625 ft 468 kts 115°
2026-05-01 15:30 52.18077 14.86989 34465 ft 468 kts 116°
2026-05-01 15:31 52.13221 15.01900 35721 ft 467 kts 114°
2026-05-01 15:31 52.10251 15.11307 36449 ft 467 kts 114°
2026-05-01 15:32 52.07287 15.20706 37163 ft 467 kts 114°
2026-05-01 15:32 52.04306 15.30104 37843 ft 468 kts 114°
2026-05-01 15:33 51.99828 15.44136 38979 ft 465 kts 114°
2026-05-01 15:34 51.95349 15.58103 39378 ft 470 kts 114°